Hourly Data Report for September 08, 2020

WINNIPEG THE FORKS
MANITOBA
Current Station Operator: ECCC - MSC

49°53'18.008" N
97°07'46.007" W
230.00 m
5023262
71579
XWN

Download Data

Hourly Data (September 2020)
Hourly Data Report for September 8, 2020
TIME
LST
Temp Definition
°C
Dew Point Definition
°C
Rel Hum Definition
%
Precip. Amount Definition
mm

Wind Dir Definition
10's deg

Wind Spd Definition
km/h
Visibility Definition
km
Stn Press Definition
kPa
Hmdx Definition


Wind Chill Definition


Weather Definition


00:00 5.8 1.8 76 0.0 31 5   99.78     LegendNANA
01:00 5.8 2.1 77 0.0 32 8   99.79     LegendNANA
02:00 5.9 2.2 77 0.0 32 8   99.81     LegendNANA
03:00 4.9 1.8 80 0.0 33 6   99.89     LegendNANA
04:00 4.0 1.4 83 0.0 33 7   99.88     LegendNANA
05:00 3.7 1.2 84 0.0 31 3   99.96     LegendNANA
06:00 3.5 1.2 85 0.0 31 4   100.00     LegendNANA
07:00 4.2 1.6 83 0.0 33 6   100.07     LegendNANA
08:00 5.7 2.4 80 0.0 34 6   100.11     LegendNANA
09:00 7.2 2.7 73 0.0 33 8   100.20     LegendNANA
10:00 8.8 2.4 64 0.0 34 7   100.20     LegendNANA
11:00 9.9 2.9 62 0.0 1 6   100.21     LegendNANA
12:00 10.5 2.0 56 0.0 34 8   100.16     LegendNANA
13:00 10.6 2.7 58 0.0 33 7   100.13     LegendNANA
14:00 10.9 0.5 49 0.0 29 6   100.10     LegendNANA
15:00 11.4 0.9 48 0.0 28 6   100.08     LegendNANA
16:00 11.5 0.6 47 0.0 28 7   100.05     LegendNANA
17:00 10.9 0.7 49 0.0 32 8   100.06     LegendNANA
18:00 10.6 -0.6 46 0.0 32 7   100.04     LegendNANA
19:00 9.6 -1.7 45 0.0 34 2   100.06     LegendNANA
20:00 7.8 0.0 58 0.0 8 1   100.10     LegendNANA
21:00 6.1 0.8 69 0.0   0   100.14     LegendNANA
22:00 6.5 1.4 70 0.0 20 3   100.13     LegendNANA
23:00 5.9 2.0 76 0.0 20 3   100.11     LegendNANA

Notes on Data Quality.

Legend

  • E = Estimated
  • M = Missing
  • NA = Not Available*
  • [empty] = Indicates an unobserved value
Date modified: